Regional Weather Roundup
Issued by NWS Newport/Morehead, NC

Current Version | Previous Version | Graphics & Text | Print | Product List | Glossary Off
Versions: 1 2 3 4 5 6 7 8 9 10 11 12 13 14 15 16 17 18 19 20 21 22 23 24 25 26 27 28 29 30 31 32 33 34 35 36 37 38 39 40 41 42 43 44 45 46 47 48 49 50

000
ASUS42 KMHX 191122
RWRMHX
WEATHER ROUNDUP FOR EASTERN NORTH CAROLINA
NATIONAL WEATHER SERVICE NEWPORT/MOREHEAD CITY NC
700 AM EDT SAT APR 19 2014

NOTE: "FAIR" INDICATES FEW OR NO CLOUDS BELOW 12,000 FEET
WITH NO SIGNIFICANT WEATHER AND/OR OBSTRUCTIONS TO VISIBILITY

NCZ015>017-031-032-045>047-102-103-191200-
NORTH COAST

CITY           SKY/WX    TMP DP  RH WIND       PRES   REMARKS
EDENTON        DRIZZLE   46  45  93 NE8       30.19R
ELIZABETH CITY CLOUDY    47  44  90 NE12      30.20R
KITTY HAWK     CLOUDY    47  46  93 N12G17    30.18R
MANTEO         CLOUDY    48  45  90 NE17      30.18R

$$

NCZ045>047-081-094-103-104-191200-
CENTRAL COAST

CITY           SKY/WX    TMP DP  RH WIND       PRES   REMARKS
FRISCO         CLOUDY    51  51 100 NE15G24   30.10F
SWANQUARTER      N/A     52 N/A N/A N14       30.09S

$$

NCZ095-097-098-100-101-191200-
SOUTHERN COAST

CITY           SKY/WX    TMP DP  RH WIND       PRES   REMARKS
BEAUFORT       HVY RAIN  54  52  93 N18G26    30.07R FOG
CEDAR ISLAND     N/A     55 N/A N/A N28G33    30.12S
JACKSONVILLE   RAIN      51  51 100 N10       30.06S
NEWPORT          N/A     54  52  94 N8G14       N/A
PINEY ISLAND   HVY RAIN  56  55  97 N23G32    30.09R FOG
WILMINGTON     RAIN      54  52  93 NE14      30.04S FOG


$$

NCZ011>013-027>030-043-044-078>080-089-090>093-098-191200-
COASTAL PLAIN

CITY           SKY/WX    TMP DP  RH WIND       PRES   REMARKS
AHOSKIE        CLOUDY    46  44  93 N7        30.20R
CLINTON        RAIN      47  47 100 N13G21    30.10S
ELIZABETHTOWN  LGT RAIN  49  49 100 NE5       30.05S
GOLDSBORO      LGT RAIN  47  47  98 N10       30.12R
GREENVILLE     LGT RAIN  46  45  93 NE9       30.18R
HAVELOCK       RAIN      52  49  89 NE17      30.10R
KENANSVILLE    RAIN      48  46  95 N12       30.11R
KINSTON        LGT RAIN  48  46  93 N12       30.13S
NEW BERN       RAIN      52  49  89 NE12G20   30.12R
RICHLANDS      CLOUDY    50 N/A N/A N15G22    30.08S
ROANOKE RAPIDS NOT AVBL
ROCKY MOUNT    LGT RAIN  46  44  93 N12       30.18R
WASHINGTON     CLOUDY    47  42  85 N12       30.16S
WHITEVILLE     LGT RAIN  54  52  94 N8G17     30.00S

$$

AMZ130-135-150-152-154-156-158-170-250-252-270-ANZ085-086-088-633-658-670-191200-
MARINE OBSERVATIONS

STATION/POSITION TIME  TEMP    WIND        PRES    WAVE   SWELL
                       AIR SEA DIR/SP/G            HT/PER HT/PER
                 (UTC) (F)     (DEG/KT/KT) (MB)    (FT/S) (FT/S)
CHESAPEAKE LIGHT 1100   45      30/ 20/ 21 1023.9
BUOY 44014       1100   48 48   20/ 19/ 23 1022.1    7/11   5/11
DUCK             1100   47 50   10/ 17/ 20 1021.4
2E DUCK          1100      47                N/A     5/12   2/12
OREGON INLET     1100   48 51  360/ 15/ 20 1021.2
BUOY 44095       1100      48                N/A     7/11   3/11
HATTERAS CG      1100   54 57   30/ 16/ 22 1019.3
DIAMOND BUOY     NOT AVBL
CAPE LOOKOUT     1100   55      10/ 18/ 22 1017.9
BEAUFORT LAB     1100   54 58   20/ 17/ 22 1017.6
30 SE NEW RIVER  1100   57 61   30/ 27/ 31 1016.0    8/ 6   3/ 9
5 SE WRIGHTSVILL 1100   56 59   30/ 17/ 19 1016.9
FRYING PAN BUOY  1100   66 65  230/  8/ 10 1014.1    8/ 7   8/ 7
BUOY 41001       NOT AVBL
BUOY 41002       NOT AVBL
BUOY 41004       NOT AVBL

$$



USA.gov is the U.S. government's official web portal to all federal, state and local government web resources and services.